Weather History for Santiago, Dominican Republic

Change the Weather History Date:

Sunday, October 6, 2013

  Actual Average Record
Temperature  
Mean Temperature 81 °F -  
Max Temperature 91 °F 89 °F 93 °F (1999)
Min Temperature 71 °F 70 °F 65 °F (2012)
Cooling Degree Days 16    
Growing Degree Days 31 (Base 50)    
Moisture  
Dew Point 74 °F    
Average Humidity 83    
Maximum Humidity 100    
Minimum Humidity 50    
Precipitation  
Precipitation 0.79 in 0.15 in - ()
Sea Level Pressure  
Sea Level Pressure 29.90 in    
Wind  
Wind Speed 4 mph ()    
Max Wind Speed 12 mph    
Max Gust Speed -    
Visibility 6.2 miles    
Events Rain , Thunderstorm    
Averages and records for this station are not official NWS values.
T = Trace of Precipitation, MM = Missing Value Source: Averaged Metar Reports

Daily Weather History Graph

Daily Weather History Graph

Search for Another Location

Airport:

Trip Planner

Search our weather history database for the weather conditions in past years. The results will help you decide how hot, cold, wet, or windy it might be!

Date:

Astronomy

Oct. 06, 2013 Rise Set
Actual Time 6:34 AM AST 6:26 PM AST
Civil Twilight 6:12 AM AST 6:48 PM AST
Nautical Twilight 5:46 AM AST 7:13 PM AST
Astronomical Twilight 5:21 AM AST 7:39 PM AST
Moon 7:58 AM AST (10/6) 7:43 PM AST (10/6)
Length of Visible Light 12h 35m
Length of Day
11h 51m
Waxing Crescent, 3% of the Moon is Illuminated
Oct 6
Waxing Crescent
Oct 11
First Quarter
Oct 18
Full
Oct 26
Last Quarter
Nov 3
New

Hourly Weather History & Observations

Time (AST) Temp. Heat Index Dew Point Humidity Pressure Visibility Wind Dir Wind Speed Gust Speed Precip Events Conditions
12:00 AM 77.0 °F - 75.2 °F 94% 29.95 in 6.2 mi ENE 4.6 mph - N/A   Mostly Cloudy
1:00 AM 77.0 °F - 75.2 °F 94% 29.92 in 6.2 mi ENE 4.6 mph - N/A   Mostly Cloudy
2:00 AM 75.2 °F - 73.4 °F 94% 29.89 in 6.2 mi Calm Calm - N/A   Mostly Cloudy
3:00 AM 75.2 °F - 73.4 °F 94% 29.89 in 6.2 mi Calm Calm - N/A   Mostly Cloudy
4:00 AM 75.2 °F - 73.4 °F 94% 29.86 in 6.2 mi Calm Calm - N/A   Scattered Clouds
5:00 AM 74 °F - 72 °F 93% 29.88 in 6 mi 2.2 mph - -   Haze
5:00 AM 73.4 °F - 71.6 °F 94% 29.86 in 6.2 mi Variable 2.3 mph - N/A   Partly Cloudy
6:00 AM 73.4 °F - 71.6 °F 94% 29.89 in 6.2 mi Calm Calm - N/A   Mostly Cloudy
7:00 AM 75.2 °F - 73.4 °F 94% 29.89 in 6.2 mi Calm Calm - N/A   Mostly Cloudy
8:00 AM 76 °F - 75 °F 95% 29.93 in 6 mi East 4.5 mph - -   Haze
8:00 AM 77.0 °F - 75.2 °F 94% 29.92 in 6.2 mi East 4.6 mph - N/A   Mostly Cloudy
9:00 AM 77.0 °F - 75.2 °F 94% 29.95 in 6.2 mi SE 4.6 mph - N/A   Mostly Cloudy
10:00 AM 80.6 °F 86.2 °F 75.2 °F 84% 29.95 in 6.2 mi ESE 6.9 mph - N/A   Mostly Cloudy
11:00 AM 84 °F - 75 °F 67% 29.95 in 6 mi SE 6.7 mph - -   Haze
11:00 AM 84.2 °F 92.3 °F 75.2 °F 74% 29.95 in 6.2 mi SE 6.9 mph - N/A   Scattered Clouds
12:00 PM 86.0 °F 93.4 °F 73.4 °F 66% 29.92 in 6.2 mi SE 11.5 mph - N/A   Scattered Clouds
1:00 PM 87.8 °F 95.6 °F 73.4 °F 62% 29.89 in 6.2 mi SSE 6.9 mph - N/A   Scattered Clouds
2:00 PM 90 °F - 74 °F 50% 29.87 in 7 mi SSE 8.9 mph - -   Haze
2:00 PM 89.6 °F 98.2 °F 73.4 °F 59% 29.86 in 6.2 mi SSE 9.2 mph - N/A   Scattered Clouds
3:00 PM 87.8 °F 95.6 °F 73.4 °F 62% 29.83 in 6.2 mi ESE 8.1 mph - N/A   Mostly Cloudy
4:00 PM 86.0 °F 93.4 °F 73.4 °F 66% 29.83 in 6.2 mi South 4.6 mph - N/A   Mostly Cloudy
5:00 PM 85 °F - 75 °F 65% 29.85 in 7 mi South 6.7 mph - -   Haze
5:00 PM 84.2 °F 92.3 °F 75.2 °F 74% 29.83 in 6.2 mi South 6.9 mph - N/A   Mostly Cloudy
6:00 PM 86.0 °F 95.1 °F 75.2 °F 70% 29.86 in 6.2 mi South 4.6 mph - N/A   Mostly Cloudy
7:00 PM 82.4 °F 92.4 °F 78.8 °F 89% 29.86 in 6.2 mi Calm Calm - N/A   Scattered Clouds
8:00 PM 77.0 °F - 75.2 °F 94% 29.89 in 6.2 mi ESE 6.9 mph - N/A Thunderstorm Thunderstorm
9:00 PM 77.0 °F - 75.2 °F 94% 29.95 in 6.2 mi SE 11.5 mph - N/A Thunderstorm Thunderstorm
10:00 PM 71.6 °F - 71.6 °F 100% 29.98 in 3.7 mi Calm Calm - N/A Rain , Thunderstorm Thunderstorms and Rain
11:00 PM 72 °F - 71 °F 96% 29.96 in 7 mi ESE 4.5 mph - -   Mostly Cloudy
11:00 PM 71.6 °F - 71.6 °F 100% 29.95 in 6.2 mi ESE 4.6 mph - N/A Thunderstorm Light Thunderstorm